Weather History for Waseca, MN

Change the Weather History Date:

Friday, September 13, 2013

  Actual Average Record
Temperature  
Mean Temperature 54 °F -  
Max Temperature 68 °F 73 °F 94 °F (1939)
Min Temperature 41 °F 50 °F 31 °F (1975)
Degree Days  
Heating Degree Days 10    
Growing Degree Days 4 (Base 50)    
Moisture  
Dew Point 44 °F    
Average Humidity 68    
Maximum Humidity 94    
Minimum Humidity 37    
Precipitation  
Precipitation 0.00 in - - ()
Sea Level Pressure  
Sea Level Pressure 30.22 in    
Wind  
Wind Speed 4 mph (ENE)    
Max Wind Speed 8 mph    
Max Gust Speed -    
Visibility 10 miles    
Events      
Averages and records for this station are not official NWS values.
T = Trace of Precipitation, MM = Missing Value Source: NWS Daily Summary

Daily Weather History Graph

Daily Weather History Graph

Search for Another Location

Airport:

Trip Planner

Search our weather history database for the weather conditions in past years. The results will help you decide how hot, cold, wet, or windy it might be!

Date:

Astronomy

Sep. 13, 2013 Rise Set
Actual Time 6:51 AM CDT 7:27 PM CDT
Civil Twilight 6:22 AM CDT 7:56 PM CDT
Nautical Twilight 5:47 AM CDT 8:31 PM CDT
Astronomical Twilight 5:12 AM CDT 9:06 PM CDT
Moon 3:27 PM CDT (9/13) 12:12 AM CDT (9/13)
Length of Visible Light 13h 34m
Length of Day
12h 36m
First Quarter, 61% of the Moon is Illuminated
Sep 13
First Quarter
Sep 19
Full
Sep 26
Last Quarter
Oct 4
New
Oct 11
First Quarter

Hourly Weather History & Observations

Time (CDT) Temp. Windchill Dew Point Humidity Pressure Visibility Wind Dir Wind Speed Gust Speed Precip Events Conditions
12:13 AM 53.6 °F - 46.4 °F 77% 30.25 in 10.0 mi North 4.6 mph - N/A   Clear
12:34 AM 48.2 °F - 44.6 °F 87% 30.25 in 10.0 mi NNE 6.9 mph - N/A   Clear
12:53 AM 50.0 °F - 44.6 °F 82% 30.25 in 10.0 mi NNE 6.9 mph - N/A   Clear
1:14 AM 50.0 °F - 46.4 °F 87% 30.25 in 10.0 mi North 6.9 mph - N/A   Clear
1:34 AM 48.2 °F - 42.8 °F 82% 30.25 in 10.0 mi North 5.8 mph - N/A   Clear
1:53 AM 46.4 °F 42.9 °F 42.8 °F 87% 30.25 in 10.0 mi NNE 6.9 mph - N/A   Clear
2:13 AM 50.0 °F - 44.6 °F 82% 30.25 in 10.0 mi NNE 6.9 mph - N/A   Clear
2:33 AM 48.2 °F - 42.8 °F 82% 30.25 in 10.0 mi NNE 5.8 mph - N/A   Clear
2:53 AM 50.0 °F - 44.6 °F 82% 30.25 in 10.0 mi NE 3.5 mph - N/A   Clear
3:14 AM 50.0 °F - 44.6 °F 82% 30.25 in 10.0 mi NE 4.6 mph - N/A   Clear
3:33 AM 51.8 °F - 46.4 °F 82% 30.25 in 10.0 mi NE 5.8 mph - N/A   Clear
3:53 AM 51.8 °F - 46.4 °F 82% 30.25 in 10.0 mi NE 5.8 mph - N/A   Clear
4:14 AM 50.0 °F - 46.4 °F 87% 30.25 in 10.0 mi NE 4.6 mph - N/A   Clear
4:33 AM 50.0 °F - 46.4 °F 87% 30.25 in 10.0 mi NE 4.6 mph - N/A   Clear
4:53 AM 50.0 °F - 46.4 °F 87% 30.25 in 10.0 mi NE 4.6 mph - N/A   Clear
5:14 AM 50.0 °F - 46.4 °F 87% 30.25 in 10.0 mi ENE 4.6 mph - N/A   Clear
5:33 AM 46.4 °F - 42.8 °F 87% 30.26 in 10.0 mi Calm Calm - N/A   Clear
5:53 AM 46.4 °F - 44.6 °F 93% 30.26 in 10.0 mi Calm Calm - N/A   Clear
6:14 AM 44.6 °F - 41.0 °F 87% 30.27 in 10.0 mi Calm Calm - N/A   Clear
6:33 AM 42.8 °F - 41.0 °F 93% 30.27 in 10.0 mi Calm Calm - N/A   Clear
6:53 AM 41.0 °F - 37.4 °F 87% 30.28 in 10.0 mi Calm Calm - N/A   Clear
7:14 AM 42.8 °F 41.1 °F 41.0 °F 93% 30.28 in 10.0 mi ENE 3.5 mph - N/A   Clear
7:33 AM 42.8 °F - 41.0 °F 93% 30.29 in 10.0 mi Calm Calm - N/A   Clear
7:53 AM 44.6 °F - 42.8 °F 93% 30.29 in 10.0 mi Calm Calm - N/A   Clear
8:14 AM 50.0 °F - 48.2 °F 94% 30.29 in 10.0 mi Calm Calm - N/A   Clear
8:34 AM 53.6 °F - 50.0 °F 88% 30.29 in 10.0 mi ESE 3.5 mph - N/A   Clear
8:53 AM 53.6 °F - 46.4 °F 77% 30.29 in 10.0 mi ESE 4.6 mph - N/A   Clear
9:14 AM 55.4 °F - 48.2 °F 77% 30.30 in 10.0 mi ESE 3.5 mph - N/A   Clear
9:34 AM 59.0 °F - 48.2 °F 67% 30.30 in 10.0 mi SE 3.5 mph - N/A   Clear
9:54 AM 59.0 °F - 44.6 °F 59% 30.30 in 10.0 mi SE 4.6 mph - N/A   Clear
10:13 AM 59.0 °F - 44.6 °F 59% 30.30 in 10.0 mi ESE 3.5 mph - N/A   Clear
10:33 AM 60.8 °F - 44.6 °F 55% 30.30 in 10.0 mi ESE 3.5 mph - N/A   Clear
10:54 AM 60.8 °F - 44.6 °F 55% 30.30 in 10.0 mi Calm Calm - N/A   Clear
11:14 AM 62.6 °F - 44.6 °F 52% 30.30 in 10.0 mi ENE 4.6 mph - N/A   Clear
11:33 AM 60.8 °F - 42.8 °F 52% 30.29 in 10.0 mi East 4.6 mph - N/A   Clear
11:54 AM 62.6 °F - 44.6 °F 52% 30.28 in 10.0 mi SE 4.6 mph - N/A   Clear
12:14 PM 62.6 °F - 42.8 °F 48% 30.28 in 10.0 mi Calm Calm - N/A   Clear
12:33 PM 64.4 °F - 44.6 °F 49% 30.27 in 10.0 mi Calm Calm - N/A   Clear
12:54 PM 64.4 °F - 42.8 °F 45% 30.26 in 10.0 mi Calm Calm - N/A   Clear
1:13 PM 64.4 °F - 42.8 °F 45% 30.25 in 10.0 mi Calm Calm - N/A   Clear
1:33 PM 66.2 °F - 44.6 °F 46% 30.24 in 10.0 mi NNE 6.9 mph - N/A   Clear
1:54 PM 64.4 °F - 41.0 °F 42% 30.24 in 10.0 mi Calm Calm - N/A   Clear
2:13 PM 66.2 °F - 41.0 °F 40% 30.23 in 10.0 mi South 3.5 mph - N/A   Clear
2:33 PM 66.2 °F - 42.8 °F 43% 30.22 in 10.0 mi NNE 3.5 mph - N/A   Clear
2:54 PM 66.2 °F - 42.8 °F 43% 30.21 in 10.0 mi Calm Calm - N/A   Clear
3:13 PM 68.0 °F - 42.8 °F 40% 30.21 in 10.0 mi North 3.5 mph - N/A   Clear
3:34 PM 68.0 °F - 42.8 °F 40% 30.20 in 10.0 mi NNE 3.5 mph - N/A   Clear
3:54 PM 68.0 °F - 41.0 °F 37% 30.20 in 10.0 mi Calm Calm - N/A   Clear
4:14 PM 68.0 °F - 41.0 °F 37% 30.19 in 10.0 mi Calm Calm - N/A   Clear
4:34 PM 68.0 °F - 44.6 °F 43% 30.18 in 10.0 mi ENE 3.5 mph - N/A   Clear
4:54 PM 68.0 °F - 42.8 °F 40% 30.18 in 10.0 mi Calm Calm - N/A   Clear
5:13 PM 68.0 °F - 42.8 °F 40% 30.18 in 10.0 mi Calm Calm - N/A   Clear
5:33 PM 68.0 °F - 42.8 °F 40% 30.17 in 10.0 mi Calm Calm - N/A   Clear
5:54 PM 66.2 °F - 42.8 °F 43% 30.17 in 10.0 mi Calm Calm - N/A   Clear
6:14 PM 66.2 °F - 44.6 °F 46% 30.16 in 10.0 mi Calm Calm - N/A   Clear
6:33 PM 66.2 °F - 46.4 °F 49% 30.16 in 10.0 mi East 3.5 mph - N/A   Clear
6:54 PM 62.6 °F - 46.4 °F 55% 30.15 in 10.0 mi Calm Calm - N/A   Clear
7:13 PM 62.6 °F - 48.2 °F 59% 30.15 in 10.0 mi Calm Calm - N/A   Clear
7:34 PM 59.0 °F - 46.4 °F 63% 30.14 in 10.0 mi Calm Calm - N/A   Clear
7:53 PM 59.0 °F - 46.4 °F 63% 30.14 in 10.0 mi Calm Calm - N/A   Clear
8:14 PM 55.4 °F - 46.4 °F 72% 30.15 in 10.0 mi Calm Calm - N/A   Clear
8:33 PM 55.4 °F - 48.2 °F 77% 30.15 in 10.0 mi East 4.6 mph - N/A   Clear
8:54 PM 55.4 °F - 46.4 °F 72% 30.14 in 10.0 mi East 3.5 mph - N/A   Clear
9:13 PM 53.6 °F - 44.6 °F 72% 30.14 in 10.0 mi ESE 5.8 mph - N/A   Clear
9:34 PM 53.6 °F - 46.4 °F 77% 30.14 in 10.0 mi ESE 6.9 mph - N/A   Clear
9:53 PM 53.6 °F - 46.4 °F 77% 30.13 in 10.0 mi East 8.1 mph - N/A   Clear
10:14 PM 53.6 °F - 46.4 °F 77% 30.13 in 10.0 mi ESE 6.9 mph - N/A   Clear
10:34 PM 53.6 °F - 46.4 °F 77% 30.13 in 10.0 mi ESE 6.9 mph - N/A   Clear
10:53 PM 51.8 °F - 44.6 °F 76% 30.13 in 10.0 mi ESE 5.8 mph - N/A   Clear
11:13 PM 50.0 °F - 44.6 °F 82% 30.13 in 10.0 mi ESE 5.8 mph - N/A   Clear
11:34 PM 50.0 °F - 44.6 °F 82% 30.13 in 10.0 mi ESE 8.1 mph - N/A   Clear
11:53 PM 51.8 °F - 44.6 °F 76% 30.13 in 10.0 mi ESE 6.9 mph - N/A   Clear